Location: Ithaca
(42.4410°N, 76.4970°W)
Time: 00:48:04
(UTC-04:00)

ISS - Visible Passes

Search period start: 22 October 2014 00:00
Search period end: 01 November 2014 00:00
Orbit: 413 x 416 km, 51.6° (Epoch: 21 October)

Date Brightness Start Highest point End Pass type
(mag) Time Alt. Az. Time Alt. Az. Time Alt. Az.
22 Oct -2.9 19:41:28 10° NW 19:44:43 46° NNE 19:44:58 45° NE visible
23 Oct -2.3 18:52:27 10° NW 18:55:30 32° NNE 18:58:03 13° E visible
23 Oct -1.1 20:29:05 10° WNW 20:30:55 27° W 20:30:55 27° W visible
24 Oct -3.2 19:39:51 10° WNW 19:43:11 74° SW 19:44:04 45° SE visible
25 Oct -3.3 18:50:40 10° NW 18:54:00 66° NNE 18:57:19 10° ESE visible
25 Oct -0.6 20:28:14 10° W 20:30:14 16° SW 20:30:14 16° SW visible
26 Oct -1.3 19:38:25 10° WNW 19:41:18 27° SW 19:43:42 13° S visible
27 Oct -2.3 18:48:55 10° WNW 18:52:09 48° SW 18:55:22 10° SE visible
28 Oct 0.1 19:38:28 10° WSW 19:39:04 10° SW 19:39:39 10° SW visible
29 Oct -0.3 18:47:34 10° W 18:49:56 18° SW 18:52:18 10° S visible
